• In Netherlands
  • List of Countries
  • For 7 days
  • Water Temperature
  • Satellite Maps
  • Weather Map
  • Weather Widgets
  • user-avatar
    Login

    Hourly Weather Gomel

    Today, 26 June, Monday

    Time Temperature Precipitation Wind Pressure Humidity
    00:00 +17°C° 0 mm 2 mps 746 mmHg 86%
    01:00 +17°C° 0 mm 2 mps 746 mmHg 86%
    02:00 +17°C° 0 mm 2 mps 746 mmHg 86%
    03:00 +17°C° 0 mm 2 mps 745 mmHg 86%
    04:00 +18°C° 0 mm 2 mps 745 mmHg 85%
    05:00 +18°C° 0 mm 2 mps 745 mmHg 85%
    06:00 +19°C° 0.1 mm 2 mps 745 mmHg 82%
    07:00 +21°C° 0.1 mm 2 mps 745 mmHg 79%
    08:00 +22°C° 0.1 mm 3 mps 745 mmHg 76%
    09:00 +24°C° 0.2 mm 3 mps 744 mmHg 71%
    10:00 +25°C° 0.2 mm 3 mps 744 mmHg 67%
    11:00 +27°C° 0.2 mm 4 mps 744 mmHg 62%
    12:00 +27°C° 0.1 mm 4 mps 744 mmHg 57%
    13:00 +28°C° 0.1 mm 4 mps 744 mmHg 53%
    14:00 +28°C° 0.1 mm 5 mps 744 mmHg 48%
    15:00 +28°C° 0.1 mm 4 mps 744 mmHg 52%
    16:00 +27°C° 0.1 mm 4 mps 743 mmHg 56%
    17:00 +27°C° 0.1 mm 4 mps 743 mmHg 60%
    18:00 +25°C° 0.1 mm 3 mps 744 mmHg 69%
    19:00 +22°C° 0.1 mm 3 mps 744 mmHg 78%
    20:00 +20°C° 0.1 mm 2 mps 744 mmHg 87%
    21:00 +19°C° 0 mm 2 mps 744 mmHg 88%
    22:00 +18°C° 0 mm 2 mps 744 mmHg 90%
    23:00 +17°C° 0 mm 2 mps 745 mmHg 92%

    Tomorrow, 27 June, Tuesday

    Time Temperature Precipitation Wind Pressure Humidity
    00:00 +17°C° 0 mm 2 mps 745 mmHg 92%
    01:00 +16°C° 0 mm 2 mps 745 mmHg 92%
    02:00 +15°C° 0 mm 2 mps 746 mmHg 92%
    03:00 +15°C° 0 mm 2 mps 746 mmHg 91%
    04:00 +15°C° 0 mm 1 mps 746 mmHg 90%
    05:00 +15°C° 0 mm 1 mps 747 mmHg 89%
    06:00 +17°C° 0 mm 2 mps 747 mmHg 80%
    07:00 +18°C° 0 mm 2 mps 747 mmHg 71%
    08:00 +19°C° 0 mm 2 mps 748 mmHg 62%
    09:00 +20°C° 0 mm 2 mps 748 mmHg 57%
    10:00 +21°C° 0 mm 2 mps 748 mmHg 52%
    11:00 +24°C° 0 mm 3 mps 748 mmHg 47%
    12:00 +24°C° 0 mm 3 mps 748 mmHg 44%
    13:00 +25°C° 0 mm 3 mps 748 mmHg 42%
    14:00 +25°C° 0 mm 3 mps 748 mmHg 40%
    15:00 +25°C° 0 mm 3 mps 748 mmHg 40%
    16:00 +25°C° 0 mm 3 mps 747 mmHg 41%
    17:00 +25°C° 0 mm 3 mps 747 mmHg 42%
    18:00 +23°C° 0 mm 2 mps 747 mmHg 51%
    19:00 +20°C° 0 mm 2 mps 747 mmHg 59%
    20:00 +18°C° 0 mm 1 mps 748 mmHg 68%
    21:00 +16°C° 0 mm 1 mps 748 mmHg 69%
    22:00 +15°C° 0 mm 1 mps 748 mmHg 71%
    23:00 +14°C° 0 mm 1 mps 748 mmHg 72%

    Day after tomorrow, 28 June, Wednesday

    Time Temperature Precipitation Wind Pressure Humidity
    00:00 +14°C° 0 mm 1 mps 748 mmHg 75%
    01:00 +13°C° 0 mm 1 mps 748 mmHg 77%
    02:00 +12°C° 0 mm 1 mps 749 mmHg 80%
    03:00 +13°C° 0 mm 1 mps 749 mmHg 79%
    04:00 +14°C° 0 mm 1 mps 749 mmHg 78%
    05:00 +15°C° 0 mm 1 mps 749 mmHg 77%
    06:00 +16°C° 0 mm 0 mps 749 mmHg 69%
    07:00 +19°C° 0 mm 0 mps 750 mmHg 61%
    08:00 +21°C° 0 mm 0 mps 750 mmHg 53%
    09:00 +22°C° 0 mm 0 mps 750 mmHg 48%
    10:00 +26°C° 0 mm 1 mps 750 mmHg 44%
    11:00 +27°C° 0 mm 1 mps 750 mmHg 40%
    12:00 +28°C° 0 mm 1 mps 750 mmHg 39%
    13:00 +28°C° 0 mm 1 mps 749 mmHg 37%
    14:00 +29°C° 0 mm 1 mps 749 mmHg 35%
    15:00 +29°C° 0 mm 1 mps 749 mmHg 37%
    16:00 +28°C° 0 mm 1 mps 749 mmHg 39%
    17:00 +28°C° 0 mm 1 mps 748 mmHg 41%
    18:00 +26°C° 0 mm 1 mps 748 mmHg 49%
    19:00 +24°C° 0 mm 2 mps 749 mmHg 57%
    20:00 +20°C° 0 mm 2 mps 749 mmHg 66%
    21:00 +20°C° 0 mm 2 mps 749 mmHg 67%
    22:00 +19°C° 0 mm 2 mps 749 mmHg 68%
    23:00 +18°C° 0 mm 2 mps 749 mmHg 70%

    29 June, Thursday

    Time Temperature Precipitation Wind Pressure Humidity
    00:00 +18°C° 0 mm 2 mps 749 mmHg 70%
    01:00 +17°C° 0 mm 2 mps 749 mmHg 70%
    02:00 +17°C° 0 mm 2 mps 749 mmHg 71%
    03:00 +17°C° 0 mm 2 mps 749 mmHg 73%
    04:00 +17°C° 0 mm 3 mps 749 mmHg 74%
    05:00 +17°C° 0 mm 3 mps 749 mmHg 76%
    06:00 +19°C° 0 mm 3 mps 749 mmHg 73%
    07:00 +21°C° 0 mm 3 mps 749 mmHg 70%
    08:00 +23°C° 0 mm 4 mps 749 mmHg 66%
    09:00 +26°C° 0 mm 4 mps 749 mmHg 62%
    10:00 +28°C° 0 mm 4 mps 748 mmHg 57%
    11:00 +30°C° 0 mm 5 mps 748 mmHg 53%
    12:00 +32°C° 0 mm 5 mps 748 mmHg 51%
    13:00 +32°C° 0 mm 5 mps 748 mmHg 49%
    14:00 +33°C° 0 mm 5 mps 747 mmHg 47%
    15:00 +32°C° 0 mm 5 mps 747 mmHg 49%
    16:00 +32°C° 0 mm 5 mps 747 mmHg 52%
    17:00 +32°C° 0 mm 5 mps 746 mmHg 54%
    18:00 +29°C° 0 mm 5 mps 746 mmHg 59%
    19:00 +28°C° 0 mm 5 mps 746 mmHg 64%
    20:00 +26°C° 0 mm 5 mps 746 mmHg 69%
    21:00 +26°C° 0 mm 5 mps 746 mmHg 67%
    22:00 +25°C° 0 mm 5 mps 746 mmHg 65%
    23:00 +25°C° 0 mm 5 mps 746 mmHg 64%

    30 June, Friday

    Time Temperature Precipitation Wind Pressure Humidity
    00:00 +23°C° 0.1 mm 5 mps 746 mmHg 67%
    01:00 +22°C° 0.1 mm 4 mps 746 mmHg 70%
    02:00 +21°C° 0.1 mm 4 mps 746 mmHg 73%
    03:00 +21°C° 0.1 mm 4 mps 746 mmHg 76%
    04:00 +21°C° 0.1 mm 4 mps 745 mmHg 79%
    05:00 +20°C° 0.1 mm 4 mps 745 mmHg 82%
    06:00 +22°C° 0.1 mm 4 mps 745 mmHg 77%
    07:00 +23°C° 0.1 mm 5 mps 745 mmHg 72%
    08:00 +26°C° 0.1 mm 5 mps 745 mmHg 67%
    09:00 +27°C° 0.1 mm 6 mps 744 mmHg 62%
    10:00 +28°C° 0.1 mm 6 mps 744 mmHg 57%
    11:00 +30°C° 0.1 mm 6 mps 744 mmHg 52%
    12:00 +30°C° 0 mm 6 mps 744 mmHg 49%
    13:00 +32°C° 0 mm 6 mps 744 mmHg 45%
    14:00 +33°C° 0 mm 6 mps 743 mmHg 42%
    15:00 +32°C° 0 mm 5 mps 743 mmHg 45%
    16:00 +30°C° 0 mm 4 mps 743 mmHg 48%
    17:00 +29°C° 0 mm 3 mps 743 mmHg 52%
    18:00 +27°C° 0 mm 3 mps 743 mmHg 55%
    19:00 +26°C° 0 mm 3 mps 744 mmHg 58%
    20:00 +24°C° 0 mm 3 mps 744 mmHg 60%
    21:00 +22°C° 0 mm 3 mps 744 mmHg 63%
    22:00 +21°C° 0 mm 3 mps 745 mmHg 65%
    23:00 +20°C° 0 mm 3 mps 745 mmHg 68%

    1 July, Saturday

    Time Temperature Precipitation Wind Pressure Humidity
    00:00 +19°C° 0 mm 2 mps 745 mmHg 72%
    01:00 +18°C° 0 mm 2 mps 746 mmHg 76%
    02:00 +17°C° 0 mm 2 mps 746 mmHg 80%
    03:00 +17°C° 0 mm 2 mps 746 mmHg 80%
    04:00 +17°C° 0 mm 3 mps 746 mmHg 79%
    05:00 +17°C° 0 mm 3 mps 746 mmHg 79%
    06:00 +19°C° 0 mm 4 mps 746 mmHg 70%
    07:00 +21°C° 0 mm 4 mps 747 mmHg 60%
    08:00 +22°C° 0 mm 5 mps 747 mmHg 50%
    09:00 +25°C° 0 mm 5 mps 747 mmHg 45%
    10:00 +26°C° 0 mm 6 mps 746 mmHg 40%
    11:00 +27°C° 0 mm 6 mps 746 mmHg 35%
    12:00 +28°C° 0 mm 6 mps 746 mmHg 34%
    13:00 +29°C° 0 mm 6 mps 746 mmHg 33%
    14:00 +29°C° 0 mm 6 mps 746 mmHg 32%
    15:00 +29°C° 0 mm 5 mps 745 mmHg 36%
    16:00 +29°C° 0 mm 4 mps 745 mmHg 39%
    17:00 +29°C° 0 mm 3 mps 745 mmHg 43%
    18:00 +27°C° 0 mm 3 mps 745 mmHg 50%
    19:00 +26°C° 0 mm 3 mps 744 mmHg 58%
    20:00 +24°C° 0 mm 3 mps 744 mmHg 65%
    21:00 +21°C° 0.9 mm 3 mps 744 mmHg 74%
    22:00 +20°C° 0.9 mm 3 mps 745 mmHg 83%
    23:00 +19°C° 0.9 mm 3 mps 745 mmHg 92%
    Show more